This demonstration page uses our WeatherBlox Daily Observations layout. Learn more.

Left ArrowRight Arrow

Hourly Observations for February 21, 2015

Temp ( °F °C ) Dew Point ( °F °C ) Humidity (%) Winds ( mph kmh ) Pressure ( in mb ) Visibility ( mi km ) Precip ( " mm )
12:51 am 00:51 Clear 57 13.9 28 -2.2 33 33 WSW 6 9 29.84 1011 10 16 0.00 0.00
1:51 am 01:51 Clear 54 12.2 29 -1.7 38 38 ESE 6 9 29.84 1011 10 16 0.00 0.00
2:51 am 02:51 Clear 52 11.1 29 -1.7 41 41 E 7 11 29.83 1010 10 16 0.00 0.00
3:51 am 03:51 Clear 51 10.6 29 -1.7 43 43 ESE 6 9 29.83 1010 10 16 0.00 0.00
4:51 am 04:51 Clear 50 10 29 -1.7 44 44 ESE 5 7 29.83 1010 10 16 0.00 0.00
5:51 am 05:51 Clear 47 8.3 30 -1.1 52 52 E 5 7 29.85 1011 10 16 0.00 0.00
6:51 am 06:51 Clear 45 7.2 30 -1.1 56 56 ESE 6 9 29.88 1012 10 16 0.00 0.00
7:51 am 07:51 Sunny 51 10.6 31 -0.6 46 46 E 7 11 29.89 1012 10 16 0.00 0.00
8:51 am 08:51 Sunny 56 13.3 33 0.6 42 42 SSE 6 9 29.88 1012 10 16 0.00 0.00
9:51 am 09:51 Sunny 63 17.2 32 0 31 31 SE 7 11 29.86 1011 10 16 0.00 0.00
10:51 am 10:51 Sunny 64 17.8 32 0 30 30 Calm 29.85 1011 10 16 0.00 0.00
11:51 am 11:51 Sunny 66 18.9 32 0 28 28 WNW 7 11 29.84 1010 10 16 0.00 0.00
12:51 pm 12:51 Sunny 70 21.1 31 -0.6 23 23 NW 9 15 29.80 1009 10 16 0.00 0.00
1:51 pm 13:51 Sunny 71 21.7 32 0 24 24 W 8 13 29.75 1007 10 16 0.00 0.00
2:51 pm 14:51 Sunny 73 22.8 30 -1.1 20 20 VRB 7 11 29.73 1007 10 16 0.00 0.00
3:51 pm 15:51 Sunny 74 23.3 29 -1.7 19 19 WNW 16 26 29.71 1006 10 16 0.00 0.00
4:51 pm 16:51 Sunny 72 22.2 30 -1.1 21 21 NW 18 30 29.72 1006 10 16 0.00 0.00
5:51 pm 17:51 Sunny 70 21.1 31 -0.6 23 23 NNW 10 17 29.72 1007 10 16 0.00 0.00
6:51 pm 18:51 Clear 66 18.9 32 0 28 28 NW 6 9 29.74 1007 10 16 0.00 0.00
7:51 pm 19:51 Clear 63 17.2 32 0 31 31 W 3 6 29.75 1008 10 16 0.00 0.00
8:51 pm 20:51 Clear 63 17.2 34 1.1 34 34 Calm 29.75 1008 10 16 0.00 0.00
9:51 pm 21:51 Clear 59 15 34 1.1 39 39 ESE 5 7 29.76 1008 10 16 0.00 0.00
10:51 pm 22:51 Clear 60 15.6 34 1.1 38 38 E 6 9 29.75 1008 10 16 0.00 0.00
11:51 pm 23:51 Clear 60 15.6 34 1.1 38 38 Calm 29.75 1008 10 16 0.00 0.00

Powered by AerisWeather